Onweer radar Meer informatie blitzortung!


Regen radar Meer informatie rain snow radar


Bezoek onze andere website:

Template documentation
and downloads

And another site



15 daagse weersverwachting Venlo (NL)

  • Overzicht
  • Per uur
  • 15 dagen
  • Extra
  • Vergelijk
  • Kaarten
  • Dagkaart
  • Meer »
  • Info
  • Statistieken
  • Directe link
    Temp 6h Neerslag Wind  
 06:02     21:22    Daglengte: 15:20 Vandaag
02:00
15°
 
3
08:00
14°
 
4
14:00
19°
 
5
20:00
18°
2.8 mm
3
 06:04     21:20    Daglengte: 15:16 Morgen
02:00
14°
 
2
08:00
14°
 
2
14:00
18°
 
2
20:00
18°
 
2
 06:05     21:19    Daglengte: 15:14 Dinsdag 03 Aug
02:00
13°
 
1
08:00
14°
 
2
14:00
20°
12.8 mm
1
20:00
20°
 
2
Locatie info
Region: Limburg
Latitude: 51.3723°N
Longitude: 6.1730°E
24 masl
Postcode: 5911 GG
Temp/Neerslag /Baro Onweer/Dauwpunt
    Temp Baro 1h Neerslag Dauwpunt Wind UV Bewolking  
 06:02     21:22    Daglengte: 15:20 Vandaag
01:00
15°
1010.1 hPa
13%
13.6°
2
Windvlaag: 2.3 m/s
11%
02:00
15°
1009.9 hPa
12%
13.8°
3
Windvlaag: 2.9 m/s
11%
03:00
15°
1009.6 hPa
14%
13.7°
3
Windvlaag: 3.1 m/s
36%
04:00
14°
1009.3 hPa
14%
13.7°
3
Windvlaag: 3.6 m/s
33%
05:00
14°
1008.9 hPa
12%
13.7°
3
Windvlaag: 3.5 m/s
35%
06:00
14°
1009.2 hPa
12%
13.4°
3
Windvlaag: 3.4 m/s
36%
07:00
14°
1009.3 hPa
12%
13.0°
3
Windvlaag: 4.8 m/s
36%
08:00
14°
1009.5 hPa
12%
12.9°
4
Windvlaag: 5.6 m/s
59%
09:00
15°
1009.5 hPa
13%
13.0°
4
Windvlaag: 4.6 m/s
69%
10:00
17°
1009.7 hPa
12%
13.1°
5
Windvlaag: 3.1 m/s
69%
11:00
18°
1009.9 hPa
18%
12.8°
4
Windvlaag: 2.9 m/s
69%
12:00
19°
1009.8 hPa
14%
14.7°
4
Windvlaag: 2.8 m/s
56%
13:00
19°
1009.6 hPa
76%
15.7°
4
Windvlaag: 2.2 m/s
66%
14:00
19°
1009.7 hPa
81%
15.5°
5
Windvlaag: 2.1 m/s
62%
15:00
19°
1009.7 hPa 0.6 mm
82%
14.8°
4
Windvlaag: 1.9 m/s
61%
16:00
19°
1009.5 hPa
78%
13.2°
5
Windvlaag: 2.3 m/s
18%
17:00
19°
1009.6 hPa 0.9 mm
82%
14.8°
5
Windvlaag: 1.7 m/s
47%
18:00
18°
1009.8 hPa 0.9 mm
82%
14.0°
4
Windvlaag: 1.4 m/s
76%
19:00
18°
1009.8 hPa 0.5 mm
81%
13.1°
4
Windvlaag: 1.6 m/s
34%
20:00
18°
1010.0 hPa
42%
13.0°
3
Windvlaag: 1.7 m/s
30%
21:00
17°
1010.4 hPa
82%
13.5°
3
Windvlaag: 2.1 m/s
36%
22:00
16°
1011.1 hPa
81%
13.4°
2
Windvlaag: 2 m/s
41%
23:00
16°
1011.4 hPa
70%
13.4°
2
Windvlaag: 1.2 m/s
52%
 06:04     21:20    Daglengte: 15:16 Morgen
00:00
15°
1011.6 hPa
63%
13.0°
2
Windvlaag: 0.6 m/s
53%
01:00
15°
1011.7 hPa
69%
12.5°
2
Windvlaag: 0.4 m/s
19%
02:00
14°
1011.8 hPa
33%
12.4°
2
Windvlaag: -0.2 m/s
37%
03:00
14°
1011.9 hPa
41%
12.5°
2
Windvlaag: -0.2 m/s
51%
04:00
14°
1012.0 hPa
79%
12.3°
2
Windvlaag: 0.4 m/s
56%
05:00
14°
1012.2 hPa
80%
12.0°
2
Windvlaag: -0.3 m/s
58%
06:00
14°
1012.6 hPa
74%
12.2°
2
Windvlaag: -0.2 m/s
60%
07:00
14°
1013.1 hPa
38%
12.3°
1
Windvlaag: 0.1 m/s
58%
08:00
14°
1013.4 hPa
72%
12.4°
2
Windvlaag: -0.1 m/s
67%
09:00
15°
1013.7 hPa
31%
12.0°
1
Windvlaag: -0.3 m/s
61%
10:00
16°
1013.8 hPa
31%
10.8°
2
Windvlaag: -0.6 m/s
35%
11:00
17°
1014.1 hPa
30%
10.5°
2
Windvlaag: -0.2 m/s
16%
12:00
18°
1014.2 hPa
29%
10.5°
2
Windvlaag: 1.3 m/s
67%
13:00
18°
1014.2 hPa
29%
10.3°
2
Windvlaag: 1.9 m/s
73%
14:00
18°
1014.2 hPa
31%
10.4°
2
Windvlaag: 2.2 m/s
67%
15:00
19°
1014.1 hPa
67%
10.5°
2
Windvlaag: 3.4 m/s
49%
16:00
19°
1013.9 hPa
67%
10.6°
2
Windvlaag: 3.9 m/s
12%
17:00
20°
1013.8 hPa
31%
10.4°
3
Windvlaag: 3.6 m/s
15%
18:00
19°
1013.8 hPa
67%
10.0°
3
Windvlaag: 3.2 m/s
21%
19:00
19°
1013.9 hPa
65%
9.8°
2
Windvlaag: 1.4 m/s
36%
20:00
18°
1013.9 hPa
56%
10.4°
2
Windvlaag: -1.4 m/s
22%
21:00
17°
1014.3 hPa
14%
11.6°
2
Windvlaag: 0.2 m/s
15%
22:00
16°
1014.7 hPa
14%
12.2°
1
Windvlaag: 2.1 m/s
39%
23:00
15°
1014.2 hPa
21%
9.6°
1
Windvlaag: 2.1 m/s
66%
 06:05     21:19    Daglengte: 15:14 Dinsdag 03 Aug
00:00
14°
1014.4 hPa
21%
9.7°
1
Windvlaag: 0.3 m/s
47%
01:00
14°
1014.2 hPa
21%
9.5°
1
Windvlaag: -0.3 m/s
81%
02:00
13°
1014.2 hPa
21%
9.9°
1
Windvlaag: -0.8 m/s
86%
03:00
13°
1014.1 hPa
25%
9.5°
2
Windvlaag: -1.3 m/s
98%
04:00
13°
1014.0 hPa
24%
9.3°
2
Windvlaag: -1.4 m/s
95%
05:00
13°
1013.8 hPa
21%
9.6°
2
Windvlaag: -2 m/s
91%
06:00
13°
1013.7 hPa
21%
9.5°
1
Windvlaag: -1.8 m/s
91%
07:00
13°
1013.9 hPa
21%
9.7°
2
Windvlaag: -1.3 m/s
99%
08:00
14°
1014.0 hPa
21%
9.9°
2
Windvlaag: -0.8 m/s
93%
09:00
16°
1014.0 hPa
30%
10.2°
1
Windvlaag: 4.1 m/s
77%
10:00
17°
1014.0 hPa 4.3 mm
99%
9.9°
1
Windvlaag: 2.7 m/s
17%
11:00
18°
1013.9 hPa 4.3 mm
100%
9.3°
1
Windvlaag: 2.4 m/s
48%
12:00
19°
1013.7 hPa 4.2 mm
100%
8.9°
1
Windvlaag: 2.1 m/s
49%
13:00
19°
1013.4 hPa
100%
8.2°
1
Windvlaag: 2.6 m/s
44%
14:00
20°
1013.0 hPa
99%
8.2°
1
Windvlaag: 3.3 m/s
59%
15:00
21°
1012.8 hPa
46%
7.7°
1
Windvlaag: 3.6 m/s
74%
16:00
21°
1012.4 hPa
37%
7.3°
1
Windvlaag: 4.1 m/s
53%
17:00
21°
1012.2 hPa
42%
7.0°
1
Windvlaag: 4 m/s
56%
18:00
21°
1011.9 hPa
100%
6.4°
2
Windvlaag: 3.9 m/s
11%
19:00
20°
1011.8 hPa
99%
6.8°
2
Windvlaag: 3.9 m/s
9%
20:00
20°
1012.1 hPa
50%
8.1°
2
Windvlaag: 4.2 m/s
13%
21:00
19°
1012.6 hPa
92%
9.9°
1
Windvlaag: 4.5 m/s
11%
22:00
17°
1013.1 hPa 4.3 mm
84%
10.8°
1
Windvlaag: 6.3 m/s
5%
23:00
16°
1013.1 hPa
72%
11.5°
1
Windvlaag: 6.8 m/s
4%
 06:07     21:17    Daglengte: 15:10 Woensdag 04 Aug
00:00
16°
1013.2 hPa
25%
11.7°
1
Windvlaag: 8.4 m/s
5%
Temp/Neerslag /Baro Onweer/Dauwpunt
    Temp Baro Neerslag Dauwpunt Wind Bewolking  
 06:02     21:22    Daglengte: 15:20 Vandaag
02:00
15°
1009.9 hPa   13.8°
3
11%
05:00
14°
1008.9 hPa   13.7°
3
35%
08:00
14°
1009.5 hPa   12.9°
4
59%
11:00
18°
1009.9 hPa   12.8°
4
69%
14:00
19°
1009.7 hPa   15.5°
5
62%
17:00
19°
1009.6 hPa 1.4 mm 14.8°
5
47%
20:00
18°
1010.0 hPa 1.4 mm 13.0°
3
30%
23:00
16°
1011.4 hPa   13.4°
2
52%
 06:04     21:20    Daglengte: 15:16 Morgen
02:00
14°
1011.8 hPa   12.4°
2
37%
05:00
14°
1012.2 hPa   12.0°
2
58%
08:00
14°
1013.4 hPa   12.4°
2
67%
11:00
17°
1014.1 hPa   10.5°
2
16%
14:00
18°
1014.2 hPa   10.4°
2
67%
17:00
20°
1013.8 hPa   10.4°
3
15%
20:00
18°
1013.9 hPa   10.4°
2
22%
23:00
15°
1014.2 hPa   9.6°
1
66%
 06:05     21:19    Daglengte: 15:14 Dinsdag 03 Aug
02:00
13°
1014.2 hPa   9.9°
1
86%
05:00
13°
1013.8 hPa   9.6°
2
91%
08:00
14°
1014.0 hPa   9.9°
2
93%
11:00
18°
1013.9 hPa 8.6 mm 9.3°
1
48%
14:00
20°
1013.0 hPa 4.2 mm 8.2°
1
59%
17:00
21°
1012.2 hPa   7.0°
1
56%
20:00
20°
1012.1 hPa   8.1°
2
13%
23:00
16°
1013.1 hPa 4.3 mm 11.5°
1
4%
 06:07     21:17    Daglengte: 15:10 Woensdag 04 Aug
02:00
14°
1013.1 hPa   10.3°
1
9%
05:00
14°
1012.0 hPa 21.8 mm 13.6°
1
1%
08:00
14°
1012.6 hPa 22.4 mm 13.5°
2
1%
11:00
15°
1013.1 hPa 22.7 mm 12.6°
3
1%
14:00
17°
1013.2 hPa 23.2 mm 11.9°
3
1%
17:00
16°
1013.7 hPa 23.8 mm 13.8°
3
1%
20:00
16°
1014.1 hPa 24.0 mm 13.0°
3
1%
23:00
14°
1014.7 hPa 24.0 mm 12.1°
2
0%
 06:08     21:15    Daglengte: 15:07 Donderdag 05 Aug
02:00
13°
1014.3 hPa 24.0 mm 12.2°
2
1%
05:00
12°
1013.3 hPa 24.0 mm 11.2°
2
1%
08:00
14°
1012.8 hPa 24.0 mm 12.7°
3
1%
11:00
17°
1011.5 hPa 24.1 mm 13.0°
4
1%
14:00
18°
1010.1 hPa 24.5 mm 11.3°
5
1%
17:00
19°
1008.5 hPa 24.6 mm 11.8°
5
1%
20:00
15°
1007.4 hPa 24.7 mm 13.2°
4
1%
23:00
14°
1005.7 hPa 25.4 mm 13.0°
5
1%
 06:10     21:13    Daglengte: 15:03 Vrijdag 06 Aug
02:00
14°
1004.6 hPa 25.9 mm 12.8°
4
1%
05:00
14°
1003.1 hPa 26.4 mm 13.4°
4
1%
08:00
15°
1002.8 hPa 27.1 mm 13.9°
5
1%
11:00
16°
1002.6 hPa 27.6 mm 14.1°
7
1%
14:00
15°
1002.7 hPa 33.0 mm 14.2°
6
1%
17:00
17°
1002.7 hPa 34.0 mm 15.3°
8
1%
20:00
17°
1003.6 hPa 35.3 mm 15.1°
7
1%
23:00
15°
1006.0 hPa 36.4 mm 14.1°
7
0%
 06:11     21:12    Daglengte: 15:01 Zaterdag 07 Aug
02:00
14°
1007.1 hPa 36.4 mm 12.9°
7
0%
05:00
13°
1008.0 hPa 36.4 mm 12.2°
6
0%
08:00
14°
1009.0 hPa 36.4 mm 12.6°
6
1%
11:00
16°
1009.8 hPa 36.4 mm 12.8°
5
1%
14:00
21°
1009.4 hPa 36.4 mm 11.8°
6
1%
17:00
21°
1009.4 hPa 36.4 mm 12.7°
4
1%
20:00
20°
1009.9 hPa 36.4 mm 14.0°
2
1%
23:00
18°
1009.7 hPa   13.0°
3
1%
 06:13     21:10    Daglengte: 14:57 Zondag 08 Aug
02:00
17°
1009.2 hPa 73.0 mm 13.0°
3
1%
08:00
15°
1008.4 hPa 82.7 mm 14.5°
1
1%
14:00
22°
1010.5 hPa 100.9 mm 12.4°
9
1%
20:00
19°
1011.2 hPa 101.7 mm 12.6°
8
0%
 06:14     21:08    Daglengte: 14:54 Maandag 09 Aug
02:00
15°
1014.4 hPa 102.5 mm 11.2°
8
0%
08:00
15°
1016.8 hPa 102.6 mm 12.0°
8
1%
14:00
18°
1019.4 hPa 103.0 mm 14.4°
8
1%
20:00
17°
1021.5 hPa 107.7 mm 13.6°
5
1%
 06:16     21:06    Daglengte: 14:50 Dinsdag 10 Aug
02:00
13°
1023.1 hPa 108.3 mm 12.1°
5
1%
08:00
14°
1023.2 hPa 108.3 mm 13.1°
4
1%
14:00
20°
1023.4 hPa 108.7 mm 12.7°
4
1%
20:00
20°
1019.6 hPa 1.1 mm 14.2°
2
48%
 06:17     21:04    Daglengte: 14:47 Woensdag 11 Aug
02:00
15°
1020.8 hPa 0.2 mm 11.9°
2
44%
08:00
15°
1020.8 hPa   12.2°
2
40%
14:00
22°
1020.1 hPa 0.4 mm 13.1°
2
48%
20:00
20°
1019.8 hPa 0.4 mm 13.8°
2
50%
 06:19     21:02    Daglengte: 14:43 Donderdag 12 Aug
02:00
15°
1020.6 hPa 0.4 mm 11.8°
0
34%
08:00
15°
1020.4 hPa 0.2 mm 12.2°
1
47%
14:00
23°
1019.7 hPa 0.2 mm 13.2°
1
60%
20:00
21°
1019.3 hPa 0.6 mm 14.3°
2
54%
 06:21     21:00    Daglengte: 14:39 Vrijdag 13 Aug
02:00
16°
1020.0 hPa 0.1 mm 12.7°
1
44%
08:00
16°
1019.9 hPa 0.1 mm 13.2°
1
51%
14:00
23°
1019.4 hPa 0.4 mm 14.0°
2
60%
20:00
21°
1019.0 hPa 0.4 mm 14.1°
2
54%
 06:22     20:58    Daglengte: 14:36 Zaterdag 14 Aug
02:00
16°
1019.6 hPa 0.2 mm 12.4°
1
50%
08:00
16°
1019.3 hPa 0.2 mm 13.1°
1
54%
14:00
23°
1018.7 hPa 0.4 mm 14.0°
2
65%
20:00
21°
1018.1 hPa 0.5 mm 14.5°
1
53%
 06:24     20:56    Daglengte: 14:32 Zondag 15 Aug
02:00
16°
1018.7 hPa 0.2 mm 12.8°
1
40%
08:00
16°
1018.2 hPa 0.3 mm 13.2°
2
51%
14:00
22°
1017.6 hPa 0.7 mm 14.2°
2
50%
20:00
20°
1017.3 hPa 0.8 mm 14.6°
2
55%
  CAPE Lifted Index Hail Supercell Tornado SRH 3km CL BTM PRES CL TOP PRES Swiss DWD icon SMHI TS
 06:02     21:22    Daglengte: 15:20 Vandaag
01:00 1 J/kg 0.4 K 0 % 0 % 0 % 0 m²/s² 0 0 1.78 2
02:00 5 J/kg 0.2 K 0 % 0 % 0 % 0 m²/s² 0 0 1.46 2
03:00 0 J/kg 0.0 K 0 % 0 % 0 % 0 m²/s² 0 0 0.96 2
04:00 22 J/kg -0.1 K 0 % 0 % 0 % 0 m²/s² 0 0 0.92 2
05:00 0 J/kg 0.0 K 0 % 0 % 0 % 0 m²/s² 0 0 1.23 2
06:00 0 J/kg 0.0 K 0 % 0 % 0 % 0 m²/s² 0 0 1.26 2
07:00 0 J/kg 0.9 K 0 % 0 % 0 % 0 m²/s² 0 0 2.43 2
08:00 0 J/kg 1.3 K 0 % 0 % 0 % 0 m²/s² 0 0 2.83 3
09:00 0 J/kg 1.1 K 0 % 0 % 0 % 0 m²/s² 0 0 2.57 3
10:00 43 J/kg 0.6 K 0 % 0 % 0 % 0 m²/s² 0 0 2.13 3
11:00 237 J/kg -0.6 K 0 % 0 % 0 % 0 m²/s² 0 0 0.72 3
12:00 447 J/kg -1.6 K 0 % 0 % 0 % 0 m²/s² 0 0 -0.4 3
13:00 531 J/kg -2.0 K 0 % 0 % 0 % 0 m²/s² 0 0 -0.62 3
14:00 520 J/kg -2.1 K 0 % 0 % 0 % 0 m²/s² 0 0 -0.63 61
15:00 509 J/kg -2.0 K 0 % 0 % 0 % 0 m²/s² 0 0 -0.53 3
16:00 466 J/kg -1.9 K 0 % 0 % 0 % 0 m²/s² 0 0 -0.13 3
17:00 114 J/kg -1.3 K 0 % 0 % 0 % 0 m²/s² 0 0 0.08 80
18:00 50 J/kg -0.2 K 0 % 0 % 0 % 0 m²/s² 0 0 0.97 80
19:00 211 J/kg -1.0 K 0 % 0 % 0 % 0 m²/s² 0 0 -0.25 3
20:00 385 J/kg -1.9 K 0 % 0 % 0 % 0 m²/s² 0 0 -1.12 3
21:00 557 J/kg -1.9 K 0 % 0 % 0 % 0 m²/s² 0 0 -1.33 3
22:00 669 J/kg -2.5 K 0 % 0 % 0 % 0 m²/s² 0 0 -1.12 3
23:00 289 J/kg -0.7 K 0 % 0 % 0 % 0 m²/s² 0 0 1.01 3
 06:04     21:20    Daglengte: 15:16 Morgen
00:00 32 J/kg 1.0 K 0 % 0 % 0 % 0 m²/s² 0 0 2.02 3
01:00 1 J/kg 1.7 K 0 % 0 % 0 % 0 m²/s² 0 0 2.63 3
02:00 0 J/kg 2.1 K 0 % 0 % 0 % 0 m²/s² 0 0 3.57 3
03:00 0 J/kg 2.6 K 0 % 0 % 0 % 0 m²/s² 0 0 3.98 3
04:00 0 J/kg 3.0 K 0 % 0 % 0 % 0 m²/s² 0 0 5.79 3
05:00 0 J/kg 3.1 K 0 % 0 % 0 % 0 m²/s² 0 0 6.85 80
06:00 0 J/kg 3.2 K 0 % 0 % 0 % 0 m²/s² 0 0 6.59 3
07:00 0 J/kg 3.6 K 0 % 0 % 0 % 0 m²/s² 0 0 4.92 3
08:00 0 J/kg 3.7 K 0 % 0 % 0 % 0 m²/s² 0 0 4.87 3
09:00 0 J/kg 3.8 K 0 % 0 % 0 % 0 m²/s² 0 0 4.19 3
10:00 0 J/kg 3.8 K 0 % 0 % 0 % 0 m²/s² 0 0 4.28 3
11:00 2 J/kg 3.2 K 0 % 0 % 0 % 0 m²/s² 0 0 3.71 2
12:00 0 J/kg 2.8 K 0 % 0 % 0 % 0 m²/s² 0 0 3.85 3
13:00 0 J/kg 2.3 K 0 % 0 % 0 % 0 m²/s² 0 0 3.11 3
14:00 37 J/kg 2.0 K 0 % 0 % 0 % 0 m²/s² 0 0 2.81 3
15:00 119 J/kg 1.2 K 0 % 0 % 0 % 0 m²/s² 0 0 3.27 3
16:00 130 J/kg 0.9 K 0 % 0 % 0 % 0 m²/s² 0 0 3.87 3
17:00 143 J/kg 0.5 K 0 % 0 % 0 % 0 m²/s² 0 0 3.56 2
18:00 123 J/kg 0.4 K 0 % 0 % 0 % 0 m²/s² 0 0 2.29 3
19:00 90 J/kg 0.8 K 0 % 0 % 0 % 0 m²/s² 0 0 2.84 2
20:00 65 J/kg 1.0 K 0 % 0 % 0 % 0 m²/s² 0 0 3.52 2
21:00 63 J/kg 1.1 K 0 % 0 % 0 % 0 m²/s² 0 0 3.98 2
22:00 0 J/kg 1.8 K 0 % 0 % 0 % 0 m²/s² 0 0 4.08 3
23:00 0 J/kg 2.2 K 0 % 0 % 0 % 0 m²/s² 0 0 4.42 3
 06:05     21:19    Daglengte: 15:14 Dinsdag 03 Aug
00:00 0 J/kg 2.0 K 0 % 0 % 0 % 0 m²/s² 0 0 5.21 3
01:00 0 J/kg 1.8 K 0 % 0 % 0 % 0 m²/s² 0 0 5.49 3
02:00 0 J/kg 1.8 K 0 % 0 % 0 % 0 m²/s² 0 0 4.95 3
03:00 0 J/kg 1.3 K 0 % 0 % 0 % 0 m²/s² 0 0 3.34 3
04:00 0 J/kg 1.5 K 0 % 0 % 0 % 0 m²/s² 0 0 3.6 3
05:00 0 J/kg 1.6 K 0 % 0 % 0 % 0 m²/s² 0 0 2.47 3
06:00 0 J/kg 1.9 K 0 % 0 % 0 % 0 m²/s² 0 0 3.37 3
07:00 0 J/kg 2.5 K 0 % 0 % 0 % 0 m²/s² 0 0 5.14 3
08:00 0 J/kg 2.8 K 0 % 0 % 0 % 0 m²/s² 0 0 4.96 3
09:00 0 J/kg 3.3 K 0 % 0 % 0 % 0 m²/s² 0 0 4.95 3
10:00 0 J/kg 3.9 K 0 % 0 % 0 % 0 m²/s² 0 0 5.16 3
11:00 0 J/kg 4.0 K 0 % 0 % 0 % 0 m²/s² 0 0 5.11 80
12:00 0 J/kg 3.5 K 0 % 0 % 0 % 0 m²/s² 0 0 4.55 80
13:00 0 J/kg 3.3 K 0 % 0 % 0 % 0 m²/s² 0 0 4.47 3
14:00 0 J/kg 3.0 K 0 % 0 % 0 % 0 m²/s² 0 0 4.11 2
15:00 1 J/kg 3.1 K 0 % 0 % 0 % 0 m²/s² 0 0 4.33 3
16:00 0 J/kg 3.5 K 0 % 0 % 0 % 0 m²/s² 0 0 5.06 3
17:00 0 J/kg 3.7 K 0 % 0 % 0 % 0 m²/s² 0 0 5.38 3
18:00 0 J/kg 3.8 K 0 % 0 % 0 % 0 m²/s² 0 0 5.54 3
19:00 0 J/kg 3.6 K 0 % 0 % 0 % 0 m²/s² 0 0 5.4 2
20:00 4 J/kg 3.0 K 0 % 0 % 0 % 0 m²/s² 0 0 4.74 1
21:00 14 J/kg 2.4 K 0 % 0 % 0 % 0 m²/s² 0 0 4.14 2
22:00 0 J/kg 2.7 K 0 % 0 % 0 % 0 m²/s² 0 0 4.41 80
23:00 0 J/kg 3.1 K 0 % 0 % 0 % 0 m²/s² 0 0 4.81 2
 06:07     21:17    Daglengte: 15:10 Woensdag 04 Aug
00:00 0 J/kg 3.4 K 0 % 0 % 0 % 0 m²/s² 0 0 5.26 1
Temp Baro Wind Neerslag
  EWN Forecast EWN WRFDA DWD ICON FMI HIRLAM MET Norway GFS
 06:02     21:22    Daglengte: 15:20 Vandaag
02:00 15.3° 1009.9 hPa 2.7 m/s 0.0 mm 13.0° 1008.9 hPa 2.6 m/s 3.1 mm 14.8° 1010.2 hPa 2.3 m/s -2.0 mm 15.6° 1009.6 hPa 3.0 m/s 0.0 mm 13.1° 1009.9 hPa 2.9 m/s
05:00 14.2° 1008.9 hPa 2.8 m/s 0.0 mm 11.8° 1007.7 hPa 2.6 m/s 4.6 mm 14.4° 1009.3 hPa 2.6 m/s 0.0 mm 13.4° 1008.5 hPa 2.6 m/s 0.0 mm 12.2° 1009.4 hPa 3.2 m/s
08:00 14.5° 1009.5 hPa 3.8 m/s 0.0 mm 13.9° 1007.7 hPa 3.6 m/s 4.6 mm 14.5° 1009.7 hPa 3.2 m/s 0.0 mm 14.1° 1009.1 hPa 3.9 m/s 0.0 mm 13.4° 1009.8 hPa 4.2 m/s
11:00 18.0° 1009.9 hPa 4.3 m/s 0.0 mm 19.1° 1008.0 hPa 3.5 m/s 4.6 mm 17.2° 1010.3 hPa 3.8 m/s 0.0 mm 18.7° 1009.2 hPa 4.5 m/s 0.0 mm 18.5° 1009.9 hPa 5.0 m/s
14:00 18.6° 1009.7 hPa 4.6 m/s 0.0 mm 21.5° 1007.5 hPa 4.8 m/s 5.1 mm 18.4° 1010.3 hPa 3.7 m/s 0.1 mm 18.5° 1009.0 hPa 5.0 m/s 0.0 mm 20.3° 1009.3 hPa 5.5 m/s
17:00 19.0° 1009.6 hPa 4.6 m/s 1.4 mm 20.8° 1007.6 hPa 6.4 m/s 6.0 mm 19.0° 1009.8 hPa 3.7 m/s 0.8 mm 19.0° 1009.2 hPa 5.5 m/s 0.0 mm 19.9° 1009.7 hPa 5.2 m/s
20:00 17.7° 1010.0 hPa 3.3 m/s 1.4 mm 19.7° 1007.5 hPa 3.0 m/s 6.6 mm 17.7° 1010.2 hPa 2.8 m/s 0.9 mm 17.6° 1010.0 hPa 3.4 m/s 0.0 mm 17.5° 1010.0 hPa 3.7 m/s
23:00 15.6° 1011.4 hPa 2.3 m/s 0.0 mm 17.0° 1009.2 hPa 3.1 m/s 34.1 mm 15.1° 1011.6 hPa 1.7 m/s 0.2 mm 16.3° 1011.6 hPa 2.2 m/s 0.0 mm 13.7° 1011.9 hPa 2.5 m/s
 06:04     21:20    Daglengte: 15:16 Morgen
02:00 14.5° 1011.8 hPa 2.1 m/s 0.0 mm 13.9° 1009.8 hPa 2.8 m/s 36.8 mm 14.1° 1011.9 hPa 1.6 m/s 0.0 mm 15.0° 1011.9 hPa 2.1 m/s 0.0 mm 12.5° 1012.7 hPa 2.4 m/s
05:00 13.8° 1012.2 hPa 1.9 m/s 0.0 mm 11.4° 1010.4 hPa 1.7 m/s 36.8 mm 14.0° 1012.0 hPa 1.6 m/s 0.4 mm 14.5° 1012.4 hPa 2.5 m/s 0.0 mm 11.8° 1013.3 hPa 1.7 m/s
08:00 14.4° 1013.4 hPa 1.6 m/s 0.0 mm 13.9° 1011.7 hPa 0.8 m/s 36.8 mm 14.8° 1013.2 hPa 1.6 m/s 0.1 mm 14.5° 1013.6 hPa 2.3 m/s 0.0 mm 13.5° 1014.4 hPa 1.4 m/s
11:00 17.4° 1014.1 hPa 1.7 m/s 0.0 mm 15.2° 1012.2 hPa 1.0 m/s 37.0 mm 17.8° 1013.7 hPa 1.6 m/s 0.0 mm 18.2° 1014.4 hPa 3.3 m/s 0.0 mm 15.6° 1014.8 hPa 1.7 m/s
14:00 18.3° 1014.2 hPa 2.3 m/s 0.0 mm 18.2° 1012.0 hPa 1.8 m/s 37.3 mm 19.0° 1013.6 hPa 1.6 m/s 0.0 mm 18.5° 1015.1 hPa 3.7 m/s 0.0 mm 20.0° 1013.9 hPa 2.2 m/s
17:00 19.8° 1013.8 hPa 2.6 m/s 0.0 mm 20.2° 1011.3 hPa 2.7 m/s 37.3 mm 20.5° 1013.2 hPa 1.9 m/s 0.0 mm 19.7° 1015.2 hPa 3.5 m/s 0.0 mm 20.2° 1013.5 hPa 2.4 m/s
20:00 18.1° 1013.9 hPa 2.2 m/s 0.0 mm 20.0° 1011.2 hPa 3.6 m/s 37.3 mm 18.8° 1013.4 hPa 2.3 m/s 0.1 mm 17.8° 1015.8 hPa 2.7 m/s 0.0 mm 19.1° 1013.3 hPa 1.6 m/s
23:00 15.4° 1014.2 hPa 1.4 m/s 0.0 mm 15.5° 1012.2 hPa 3.1 m/s 37.3 mm 16.2° 1014.3 hPa 1.3 m/s 0.0 mm 14.9° 1013.9 hPa 1.5 m/s
 06:05     21:19    Daglengte: 15:14 Dinsdag 03 Aug
02:00 13.3° 1014.2 hPa 1.3 m/s 0.0 mm 12.2° 1012.4 hPa 2.0 m/s 37.3 mm 14.9° 1014.3 hPa 0.4 m/s 0.0 mm 14.4° 1013.4 hPa 1.5 m/s
05:00 13.3° 1013.8 hPa 1.8 m/s 0.0 mm 13.1° 1012.0 hPa 1.9 m/s 37.3 mm 14.2° 1014.0 hPa 1.1 m/s 0.0 mm 14.0° 1012.4 hPa 1.3 m/s
08:00 14.2° 1014.0 hPa 1.8 m/s 0.0 mm 14.3° 1012.0 hPa 2.7 m/s 37.3 mm 14.9° 1014.2 hPa 0.7 m/s 0.0 mm 14.8° 1012.7 hPa 1.2 m/s
11:00 18.2° 1013.9 hPa 0.7 m/s 8.6 mm 18.6° 1011.9 hPa 2.4 m/s 37.3 mm 18.1° 1014.4 hPa 0.3 m/s 0.4 mm 17.4° 1012.4 hPa 1.9 m/s
14:00 20.3° 1013.0 hPa 1.4 m/s 4.2 mm 21.2° 1010.5 hPa 3.3 m/s 37.3 mm 20.0° 1013.6 hPa 1.0 m/s 0.2 mm 18.7° 1011.6 hPa 2.7 m/s
17:00 21.3° 1012.2 hPa 1.0 m/s 0.0 mm 22.1° 1010.5 hPa 4.0 m/s 37.3 mm 21.0° 1012.6 hPa 0.3 m/s 0.0 mm 17.8° 1011.7 hPa 2.6 m/s
20:00 19.7° 1012.1 hPa 1.8 m/s 0.0 mm 20.9° 1010.7 hPa 4.2 m/s 37.3 mm 19.4° 1012.4 hPa 1.2 m/s 0.1 mm 17.0° 1012.0 hPa 3.2 m/s
23:00 16.3° 1013.1 hPa 1.1 m/s 4.3 mm 16.6° 1012.1 hPa 3.7 m/s 37.3 mm 16.2° 1013.3 hPa 0.4 m/s 0.2 mm 14.9° 1013.0 hPa 2.3 m/s
 06:07     21:17    Daglengte: 15:10 Woensdag 04 Aug
02:00 14.3° 1013.1 hPa 1.4 m/s 0.0 mm 14.5° 1012.9 hPa 3.2 m/s 37.3 mm 14.2° 1013.1 hPa 0.9 m/s 0.0 mm 14.6° 1012.9 hPa 1.8 m/s
05:00 14.1° 1012.0 hPa 1.2 m/s 21.8 mm 14.1° 1012.0 hPa 1.2 m/s 21.8 mm
08:00 14.5° 1012.6 hPa 2.3 m/s 22.4 mm 14.5° 1012.6 hPa 2.3 m/s 22.4 mm
11:00 15.5° 1013.1 hPa 3.0 m/s 22.7 mm 15.5° 1013.1 hPa 3.0 m/s 22.7 mm
14:00 17.2° 1013.2 hPa 2.9 m/s 23.2 mm 17.2° 1013.2 hPa 2.9 m/s 23.2 mm
17:00 16.4° 1013.7 hPa 3.1 m/s 23.8 mm 16.4° 1013.7 hPa 3.1 m/s 23.8 mm
20:00 15.5° 1014.1 hPa 3.2 m/s 24.0 mm 15.5° 1014.1 hPa 3.2 m/s 24.0 mm
23:00 13.9° 1014.7 hPa 2.3 m/s 24.0 mm 13.9° 1014.7 hPa 2.3 m/s 24.0 mm
 06:08     21:15    Daglengte: 15:07 Donderdag 05 Aug
02:00 13.3° 1014.3 hPa 1.8 m/s 24.0 mm 13.3° 1014.3 hPa 1.8 m/s 24.0 mm
05:00 11.9° 1013.3 hPa 1.9 m/s 24.0 mm 11.9° 1013.3 hPa 1.9 m/s 24.0 mm
08:00 13.8° 1012.8 hPa 2.6 m/s 24.0 mm 13.8° 1012.8 hPa 2.6 m/s 24.0 mm
11:00 17.0° 1011.5 hPa 3.5 m/s 24.1 mm 17.0° 1011.5 hPa 3.5 m/s 24.1 mm
14:00 18.4° 1010.1 hPa 4.9 m/s 24.5 mm 18.4° 1010.1 hPa 4.9 m/s 24.5 mm
17:00 18.7° 1008.5 hPa 4.5 m/s 24.6 mm 18.7° 1008.5 hPa 4.5 m/s 24.6 mm
20:00 15.0° 1007.4 hPa 4.3 m/s 24.7 mm 15.0° 1007.4 hPa 4.3 m/s 24.7 mm
23:00 14.2° 1005.7 hPa 5.0 m/s 25.4 mm 14.2° 1005.7 hPa 5.0 m/s 25.4 mm
 06:10     21:13    Daglengte: 15:03 Vrijdag 06 Aug
02:00 14.3° 1004.6 hPa 4.0 m/s 25.9 mm 14.3° 1004.6 hPa 4.0 m/s 25.9 mm
05:00 14.2° 1003.1 hPa 4.0 m/s 26.4 mm 14.2° 1003.1 hPa 4.0 m/s 26.4 mm
08:00 14.8° 1002.8 hPa 5.0 m/s 27.1 mm 14.8° 1002.8 hPa 5.0 m/s 27.1 mm
11:00 15.9° 1002.6 hPa 7.0 m/s 27.6 mm 15.9° 1002.6 hPa 7.0 m/s 27.6 mm
14:00 15.1° 1002.7 hPa 6.2 m/s 33.0 mm 15.1° 1002.7 hPa 6.2 m/s 33.0 mm
17:00 17.3° 1002.7 hPa 7.6 m/s 34.0 mm 17.3° 1002.7 hPa 7.6 m/s 34.0 mm
20:00 16.9° 1003.6 hPa 6.8 m/s 35.3 mm 16.9° 1003.6 hPa 6.8 m/s 35.3 mm
23:00 15.3° 1006.0 hPa 6.9 m/s 36.4 mm 15.3° 1006.0 hPa 6.9 m/s 36.4 mm
 06:11     21:12    Daglengte: 15:01 Zaterdag 07 Aug
02:00 13.9° 1007.1 hPa 6.7 m/s 36.4 mm 13.9° 1007.1 hPa 6.7 m/s 36.4 mm
05:00 12.9° 1008.0 hPa 5.8 m/s 36.4 mm 12.9° 1008.0 hPa 5.8 m/s 36.4 mm
08:00 13.6° 1009.0 hPa 5.9 m/s 36.4 mm 13.6° 1009.0 hPa 5.9 m/s 36.4 mm
11:00 15.7° 1009.8 hPa 5.3 m/s 36.4 mm 15.7° 1009.8 hPa 5.3 m/s 36.4 mm
14:00 21.2° 1009.4 hPa 5.8 m/s 36.4 mm 21.2° 1009.4 hPa 5.8 m/s 36.4 mm
17:00 21.0° 1009.4 hPa 4.1 m/s 36.4 mm 21.0° 1009.4 hPa 4.1 m/s 36.4 mm
20:00 19.5° 1009.9 hPa 2.2 m/s 36.4 mm 19.5° 1009.9 hPa 2.2 m/s 36.4 mm
23:00 17.6° 1009.7 hPa 2.6 m/s 36.5 mm 17.6° 1009.7 hPa 2.6 m/s 36.5 mm
 06:13     21:10    Daglengte: 14:57 Zondag 08 Aug
02:00 16.6° 1009.2 hPa 3.1 m/s 36.5 mm 16.6° 1009.2 hPa 3.1 m/s 36.5 mm
08:00 15.0° 1008.4 hPa 1.3 m/s 46.2 mm 15.0° 1008.4 hPa 1.3 m/s 46.2 mm
14:00 22.1° 1010.5 hPa 8.5 m/s 50.5 mm 22.1° 1010.5 hPa 8.5 m/s 50.5 mm
20:00 19.0° 1011.2 hPa 8.3 m/s 51.1 mm 19.0° 1011.2 hPa 8.3 m/s 51.1 mm
 06:14     21:08    Daglengte: 14:54 Maandag 09 Aug
02:00 15.2° 1014.4 hPa 8.1 m/s 51.2 mm 15.2° 1014.4 hPa 8.1 m/s 51.2 mm
08:00 15.4° 1016.8 hPa 7.7 m/s 51.3 mm 15.4° 1016.8 hPa 7.7 m/s 51.3 mm
14:00 17.9° 1019.4 hPa 7.6 m/s 51.7 mm 17.9° 1019.4 hPa 7.6 m/s 51.7 mm
20:00 16.8° 1021.5 hPa 5.3 m/s 54.1 mm 16.8° 1021.5 hPa 5.3 m/s 54.1 mm
 06:16     21:06    Daglengte: 14:50 Dinsdag 10 Aug
02:00 13.4° 1023.1 hPa 4.6 m/s 54.1 mm 13.4° 1023.1 hPa 4.6 m/s 54.1 mm
08:00 14.4° 1023.2 hPa 4.4 m/s 54.1 mm 14.4° 1023.2 hPa 4.4 m/s 54.1 mm
14:00 19.8° 1023.4 hPa 4.3 m/s 54.5 mm 19.8° 1023.4 hPa 4.3 m/s 54.5 mm
20:00 20.2° 1019.6 hPa 2.4 m/s 1.1 mm
 06:17     21:04    Daglengte: 14:47 Woensdag 11 Aug
02:00 14.6° 1020.8 hPa 1.5 m/s 0.2 mm
08:00 14.9° 1020.8 hPa 1.8 m/s 0.0 mm
14:00 21.6° 1020.1 hPa 2.0 m/s 0.4 mm
20:00 20.0° 1019.8 hPa 1.9 m/s 0.4 mm
 06:19     21:02    Daglengte: 14:43 Donderdag 12 Aug
02:00 15.0° 1020.6 hPa 0.4 m/s 0.4 mm
08:00 15.4° 1020.4 hPa 0.6 m/s 0.2 mm
14:00 22.6° 1019.7 hPa 0.9 m/s 0.2 mm
20:00 20.8° 1019.3 hPa 1.7 m/s 0.6 mm
 06:21     21:00    Daglengte: 14:39 Vrijdag 13 Aug
02:00 16.1° 1020.0 hPa 0.6 m/s 0.1 mm
08:00 16.4° 1019.9 hPa 1.2 m/s 0.1 mm
14:00 23.2° 1019.4 hPa 1.9 m/s 0.4 mm
20:00 21.0° 1019.0 hPa 1.7 m/s 0.4 mm
 06:22     20:58    Daglengte: 14:36 Zaterdag 14 Aug
02:00 16.2° 1019.6 hPa 0.9 m/s 0.2 mm
08:00 16.3° 1019.3 hPa 1.4 m/s 0.2 mm
14:00 22.6° 1018.7 hPa 1.6 m/s 0.4 mm
20:00 21.0° 1018.1 hPa 1.3 m/s 0.5 mm
 06:24     20:56    Daglengte: 14:32 Zondag 15 Aug
02:00 15.9° 1018.7 hPa 0.9 m/s 0.2 mm
08:00 16.0° 1018.2 hPa 1.7 m/s 0.3 mm
14:00 22.3° 1017.6 hPa 2.4 m/s 0.7 mm
20:00 20.4° 1017.3 hPa 2.1 m/s 0.8 mm
FMI Hirlam - 7.5 km EWN WRFDA - 12 km DWD ICON - 7 km GFS - 25 km Basiskaart






























































Updatetijd (Europe/Amsterdam) Resolutie Lengte Stap
FMI Hirlam 19:00, 01:00, 07:00, 13:00 7.5 km 49h 1h
EWN WRFDA 22:15, 04:15, 10:15, 16:15 12 km 73h 1h
DWD ICON 23:45, 05:45, 11:45, 17:45 7 km 75h 1h
GFS 20:15, 02:15, 08:15, 14:15 25 km 237h 3h
30+ mm
25-30 mm
20-25 mm
15-20 mm
10-15 mm
6-10 mm
4-6 mm
2-4 mm
1-2 mm
0.5-1 mm
0.2-0.5 mm
0.1-0.2 mm
30+ mm
25-30 mm
20-25 mm
15-20 mm
10-15 mm
6-10 mm
4-6 mm
2-4 mm
1-2 mm
0.5-1 mm
0.2-0.5 mm
0.1-0.2 mm
Sneeuwval
Natte sneeuw
Hagel
Vorst
30+ mm
25-30 mm
20-25 mm
15-20 mm
10-15 mm
6-10 mm
4-6 mm
2-4 mm
1-2 mm
0.5-1 mm
0.2-0.5 mm
0.1-0.2 mm
Sneeuwval
Natte sneeuw
Hagel
Vorst
Onweer
50 mm
40 mm
30 mm
26 mm
22 mm
18 mm
14 mm
10 mm
9 mm
8 mm
7 mm
6 mm
5 mm
4.5 mm
4 mm
3.5 mm
3 mm
2.5 mm
2 mm
1.5 mm
1 mm
0.8 mm
0.6 mm
0.4 mm
0.2 mm
0.05 mm
35°
30°
25°
20°
15°
10°
-5°
-10°
-15°
-20°
-25°
-30°
-35°
33> m/s
29 m/s
25 m/s
21 m/s
17 m/s
14 m/s
11 m/s
8 m/s
5 m/s
3 m/s
0 m/s
2600 J/kg
2400 J/kg
2200 J/kg
2000 J/kg
1800 J/kg
1600 J/kg
1400 J/kg
1200 J/kg
1000 J/kg
800 J/kg
600 J/kg
400 J/kg
200 J/kg
70 dBZ
65 dBZ
60 dBZ
55 dBZ
50 dBZ
45 dBZ
40 dBZ
35 dBZ
30 dBZ
25 dBZ
20 dBZ
15 dBZ
10 dBZ
5 dBZ
-1 K
-2 K
-3 K
-4 K
-5 K
-6 K
-7 K
-8 K
-9 K
950 m²/s²
900 m²/s²
850 m²/s²
800 m²/s²
750 m²/s²
700 m²/s²
650 m²/s²
600 m²/s²
550 m²/s²
500 m²/s²
450 m²/s²
400 m²/s²
350 m²/s²
300 m²/s²
250 m²/s²
200 m²/s²
150 m²/s²
100 m²/s²
46 m/s
44 m/s
42 m/s
40 m/s
38 m/s
36 m/s
34 m/s
32 m/s
30 m/s
28 m/s
26 m/s
24 m/s
22 m/s
20 m/s
16 m/s
12 m/s
8 m/s
4 m/s
30 m/s
28 m/s
26 m/s
24 m/s
22 m/s
20 m/s
18 m/s
16 m/s
14 m/s
12 m/s
10 m/s
8 m/s
6 m/s
4 m/s
2 m/s
3.0
2.8
2.6
2.4
2.2
2.0
1.8
1.6
1.4
1.2
1.0
0.8
0.6
0.4
0.2
15
14
13
12
11
10
9
8
7
6
5
4
3
2
1
90%
80%
70%
60%
50%
40%
30%
20%
10%
42
40
38
36
34
32
30
28
26
24
22
20
18
16
14
12
90+ cm
80-90 cm
70-80 cm
60-70 cm
50-60 cm
40-50 cm
30-40 cm
20-30 cm
10-20 cm
1-10 cm
Sneeuwval
Natte sneeuw
Regen
>120 mm
115 mm
110 mm
105 mm
100 mm
95 mm
90 mm
85 mm
80 mm
75 mm
70 mm
65 mm
60 mm
55 mm
50 mm
45 mm
45 mm
40 mm
35 mm
30 mm
25 mm
20 mm
15 mm
10 mm
5 mm
0.1 mm
960 hPa
880 hPa
800 hPa
720 hPa
640 hPa
560 hPa
584 gpdm
568 gpdm
552 gpdm
536 gpdm
520 gpdm
504 gpdm
488 gpdm
Extreem zwaar Noodweer Kans op onweer
15% 15% 5% 50% 15%

Dag




Kaart






35°
30°
25°
20°